Time,TemperatureF,DewpointF,PressureIn,WindDirection,WindDirectionDegrees,WindSpeedMPH,WindSpeedGustMPH,Humidity,HourlyPrecipIn,Conditions,Clouds,dailyrainin,SoftwareType,DateUTC
2013-07-27 00:03:00,54.9,53.0,30.02,NNW,343,0.0,1.0,93,0.00,,,0.00,weatherlink.com 1.10,2013-07-27 04:03:00,
2013-07-27 00:18:00,54.6,53.0,30.02,NNW,343,1.0,1.0,94,0.00,,,0.00,weatherlink.com 1.10,2013-07-27 04:18:00,
2013-07-27 00:33:00,54.5,53.0,30.02,NNW,342,0.0,1.0,95,0.00,,,0.00,weatherlink.com 1.10,2013-07-27 04:33:00,
2013-07-27 00:48:00,54.4,53.0,30.02,NNW,343,0.0,1.0,95,0.00,,,0.00,weatherlink.com 1.10,2013-07-27 04:48:00,
2013-07-27 01:03:00,54.1,53.0,30.02,NNW,342,0.0,1.0,95,0.00,,,0.00,weatherlink.com 1.10,2013-07-27 05:03:00,
2013-07-27 01:18:00,54.2,53.0,30.01,NNW,343,0.0,1.0,95,0.00,,,0.00,weatherlink.com 1.10,2013-07-27 05:18:00,
2013-07-27 01:33:00,54.1,53.0,30.01,NNW,342,0.0,0.0,95,0.00,,,0.00,weatherlink.com 1.10,2013-07-27 05:33:00,
2013-07-27 01:48:00,54.1,53.0,30.01,NNW,343,0.0,0.0,95,0.00,,,0.00,weatherlink.com 1.10,2013-07-27 05:48:00,
2013-07-27 02:03:00,53.9,53.0,30.01,NNW,343,0.0,0.0,95,0.00,,,0.00,weatherlink.com 1.10,2013-07-27 06:03:00,
2013-07-27 02:18:00,53.6,52.0,30.01,NNW,342,0.0,0.0,95,0.00,,,0.00,weatherlink.com 1.10,2013-07-27 06:18:00,
2013-07-27 02:33:00,53.4,52.0,30.01,NNW,342,0.0,0.0,95,0.00,,,0.00,weatherlink.com 1.10,2013-07-27 06:33:00,
2013-07-27 02:48:00,53.4,52.0,30.01,NNW,342,0.0,0.0,95,0.00,,,0.00,weatherlink.com 1.10,2013-07-27 06:48:00,
2013-07-27 03:03:00,53.3,52.0,30.01,NNW,343,0.0,0.0,95,0.00,,,0.00,weatherlink.com 1.10,2013-07-27 07:03:00,
2013-07-27 03:18:00,52.8,52.0,30.00,NNW,342,0.0,0.0,95,0.00,,,0.00,weatherlink.com 1.10,2013-07-27 07:18:00,
2013-07-27 03:33:00,52.6,51.0,30.00,NNW,343,0.0,0.0,95,0.00,,,0.00,weatherlink.com 1.10,2013-07-27 07:33:00,
2013-07-27 03:48:00,52.8,52.0,30.00,NNW,343,0.0,0.0,96,0.00,,,0.00,weatherlink.com 1.10,2013-07-27 07:48:00,
2013-07-27 04:03:00,52.6,51.0,30.00,NNW,342,0.0,0.0,95,0.00,,,0.00,weatherlink.com 1.10,2013-07-27 08:03:00,
2013-07-27 04:18:00,52.5,51.0,30.00,NNW,342,0.0,0.0,96,0.00,,,0.00,weatherlink.com 1.10,2013-07-27 08:18:00,
2013-07-27 04:33:00,52.6,52.0,30.01,NNW,342,0.0,0.0,96,0.00,,,0.00,weatherlink.com 1.10,2013-07-27 08:33:00,
2013-07-27 04:48:00,52.6,52.0,30.01,NNW,343,0.0,0.0,96,0.00,,,0.00,weatherlink.com 1.10,2013-07-27 08:48:00,
2013-07-27 05:03:00,52.4,51.0,30.01,NNW,343,0.0,0.0,96,0.00,,,0.00,weatherlink.com 1.10,2013-07-27 09:03:00,
2013-07-27 05:19:00,52.3,51.0,30.01,NNW,342,0.0,0.0,96,0.00,,,0.00,weatherlink.com 1.10,2013-07-27 09:19:00,
2013-07-27 05:34:00,52.4,51.0,30.01,NNW,343,0.0,0.0,96,0.00,,,0.00,weatherlink.com 1.10,2013-07-27 09:34:00,
2013-07-27 05:49:00,52.5,51.0,30.01,NNW,342,0.0,0.0,95,0.00,,,0.00,weatherlink.com 1.10,2013-07-27 09:49:00,
2013-07-27 06:04:00,52.5,51.0,30.01,NNW,342,0.0,0.0,95,0.00,,,0.00,weatherlink.com 1.10,2013-07-27 10:04:00,
2013-07-27 06:19:00,52.6,51.0,30.02,NNW,342,0.0,0.0,95,0.00,,,0.00,weatherlink.com 1.10,2013-07-27 10:19:00,
2013-07-27 06:35:00,52.8,52.0,30.01,NNW,343,0.0,0.0,95,0.00,,,0.00,weatherlink.com 1.10,2013-07-27 10:35:00,
2013-07-27 06:49:00,53.5,52.0,30.02,NNW,343,0.0,0.0,95,0.00,,,0.00,weatherlink.com 1.10,2013-07-27 10:49:00,
2013-07-27 07:04:00,54.1,53.0,30.02,NNW,342,0.0,0.0,95,0.00,,,0.00,weatherlink.com 1.10,2013-07-27 11:04:00,
2013-07-27 07:19:00,54.8,53.0,30.02,NNW,342,0.0,0.0,94,0.00,,,0.00,weatherlink.com 1.10,2013-07-27 11:19:00,
2013-07-27 07:34:00,55.4,54.0,30.02,NNW,343,0.0,0.0,95,0.00,,,0.00,weatherlink.com 1.10,2013-07-27 11:34:00,
2013-07-27 07:49:00,56.3,55.0,30.03,NNW,343,0.0,0.0,95,0.00,,,0.00,weatherlink.com 1.10,2013-07-27 11:49:00,
2013-07-27 08:04:00,57.3,56.0,30.03,NNW,342,0.0,0.0,94,0.00,,,0.00,weatherlink.com 1.10,2013-07-27 12:04:00,
2013-07-27 08:19:00,58.2,56.0,30.04,NNW,342,0.0,0.0,91,0.00,,,0.00,weatherlink.com 1.10,2013-07-27 12:19:00,
2013-07-27 08:34:00,59.1,56.0,30.03,NNE,27,0.0,0.0,88,0.00,,,0.00,weatherlink.com 1.10,2013-07-27 12:34:00,
2013-07-27 08:49:00,60.3,56.0,30.03,NNE,25,0.0,0.0,86,0.00,,,0.00,weatherlink.com 1.10,2013-07-27 12:49:00,
2013-07-27 09:04:00,61.5,57.0,30.03,NE,43,0.0,0.0,84,0.00,,,0.00,weatherlink.com 1.10,2013-07-27 13:04:00,
2013-07-27 09:19:00,62.1,57.0,30.04,NE,49,0.0,0.0,84,0.00,,,0.00,weatherlink.com 1.10,2013-07-27 13:19:00,
2013-07-27 09:34:00,63.0,58.0,30.03,North,3,0.0,2.0,83,0.00,,,0.00,weatherlink.com 1.10,2013-07-27 13:34:00,
2013-07-27 09:49:00,63.9,59.0,30.03,North,349,0.0,2.0,84,0.00,,,0.00,weatherlink.com 1.10,2013-07-27 13:49:00,
2013-07-27 10:04:00,64.9,60.0,30.03,WSW,256,0.0,1.0,85,0.00,,,0.00,weatherlink.com 1.10,2013-07-27 14:04:00,
2013-07-27 10:19:00,66.3,60.0,30.03,SE,124,0.0,1.0,80,0.00,,,0.00,weatherlink.com 1.10,2013-07-27 14:19:00,
2013-07-27 10:34:00,68.3,59.0,30.03,NNE,14,0.0,1.0,73,0.00,,,0.00,weatherlink.com 1.10,2013-07-27 14:34:00,
2013-07-27 10:49:00,71.0,62.0,30.02,SW,232,0.0,2.0,73,0.00,,,0.00,weatherlink.com 1.10,2013-07-27 14:49:00,
2013-07-27 11:04:00,71.3,61.0,30.02,North,3,0.0,3.0,71,0.00,,,0.00,weatherlink.com 1.10,2013-07-27 15:04:00,
2013-07-27 11:19:00,72.4,62.0,30.02,North,9,2.0,2.0,70,0.00,,,0.00,weatherlink.com 1.10,2013-07-27 15:19:00,
2013-07-27 11:34:00,72.1,62.0,30.02,NW,308,1.0,3.0,70,0.00,,,0.00,weatherlink.com 1.10,2013-07-27 15:34:00,
2013-07-27 11:49:00,72.5,61.0,30.02,SSE,150,0.0,3.0,67,0.00,,,0.00,weatherlink.com 1.10,2013-07-27 15:49:00,
2013-07-27 12:05:00,72.1,61.0,30.02,NW,308,0.0,3.0,68,0.00,,,0.00,weatherlink.com 1.10,2013-07-27 16:05:00,
2013-07-27 12:20:00,73.5,62.0,30.01,West,277,1.0,3.0,67,0.00,,,0.00,weatherlink.com 1.10,2013-07-27 16:20:00,
2013-07-27 12:35:00,73.8,61.0,30.01,West,276,0.0,1.0,64,0.00,,,0.00,weatherlink.com 1.10,2013-07-27 16:35:00,
2013-07-27 12:50:00,73.5,61.0,30.00,WSW,253,0.0,4.0,66,0.00,,,0.00,weatherlink.com 1.10,2013-07-27 16:50:00,
2013-07-27 13:05:00,74.0,62.0,30.00,West,278,1.0,2.0,66,0.00,,,0.00,weatherlink.com 1.10,2013-07-27 17:05:00,
2013-07-27 13:20:00,74.5,60.0,30.00,ENE,65,1.0,2.0,60,0.00,,,0.00,weatherlink.com 1.10,2013-07-27 17:20:00,
2013-07-27 13:35:00,74.8,62.0,30.00,NNW,331,0.0,1.0,65,0.00,,,0.00,weatherlink.com 1.10,2013-07-27 17:35:00,
2013-07-27 13:50:00,74.6,62.0,29.99,ESE,121,0.0,2.0,64,0.00,,,0.00,weatherlink.com 1.10,2013-07-27 17:50:00,
2013-07-27 14:05:00,74.8,61.0,30.00,West,270,0.0,2.0,62,0.00,,,0.00,weatherlink.com 1.10,2013-07-27 18:05:00,
2013-07-27 14:20:00,75.1,63.0,30.00,NW,313,0.0,2.0,66,0.00,,,0.00,weatherlink.com 1.10,2013-07-27 18:20:00,
2013-07-27 14:35:00,74.6,61.0,30.00,NE,56,2.0,3.0,63,0.00,,,0.00,weatherlink.com 1.10,2013-07-27 18:35:00,
2013-07-27 14:50:00,74.4,61.0,29.99,West,272,1.0,2.0,64,0.00,,,0.00,weatherlink.com 1.10,2013-07-27 18:50:00,
2013-07-27 15:05:00,74.1,60.0,29.99,NW,319,0.0,5.0,62,0.00,,,0.00,weatherlink.com 1.10,2013-07-27 19:05:00,
2013-07-27 15:20:00,75.0,61.0,29.98,West,276,0.0,2.0,62,0.00,,,0.00,weatherlink.com 1.10,2013-07-27 19:20:00,
2013-07-27 15:35:00,74.3,60.0,29.98,East,89,0.0,1.0,62,0.00,,,0.00,weatherlink.com 1.10,2013-07-27 19:35:00,
2013-07-27 15:50:00,72.9,60.0,29.99,WSW,258,0.0,2.0,64,0.00,,,0.00,weatherlink.com 1.10,2013-07-27 19:50:00,
2013-07-27 16:05:00,72.2,59.0,29.98,NE,49,0.0,1.0,64,0.00,,,0.00,weatherlink.com 1.10,2013-07-27 20:05:00,
2013-07-27 16:20:00,71.8,59.0,29.98,ENE,57,0.0,0.0,64,0.00,,,0.00,weatherlink.com 1.10,2013-07-27 20:20:00,
2013-07-27 16:35:00,72.9,60.0,29.98,South,191,0.0,1.0,64,0.00,,,0.00,weatherlink.com 1.10,2013-07-27 20:35:00,
2013-07-27 16:50:00,72.9,59.0,29.97,ESE,121,0.0,2.0,61,0.00,,,0.00,weatherlink.com 1.10,2013-07-27 20:50:00,
2013-07-27 17:05:00,73.4,59.0,29.97,East,80,0.0,1.0,61,0.00,,,0.00,weatherlink.com 1.10,2013-07-27 21:05:00,
2013-07-27 17:20:00,72.4,62.0,29.96,WNW,301,0.0,1.0,70,0.00,,,0.00,weatherlink.com 1.10,2013-07-27 21:20:00,
2013-07-27 17:35:00,72.9,61.0,29.96,East,85,0.0,1.0,67,0.00,,,0.00,weatherlink.com 1.10,2013-07-27 21:35:00,
2013-07-27 17:50:00,72.7,60.0,29.95,ESE,121,0.0,2.0,65,0.00,,,0.00,weatherlink.com 1.10,2013-07-27 21:50:00,
2013-07-27 18:05:00,72.5,62.0,29.95,SSE,158,0.0,2.0,70,0.00,,,0.00,weatherlink.com 1.10,2013-07-27 22:05:00,
2013-07-27 18:20:00,71.4,62.0,29.95,East,79,0.0,0.0,72,0.00,,,0.00,weatherlink.com 1.10,2013-07-27 22:20:00,
2013-07-27 18:35:00,69.5,61.0,29.95,ESE,113,0.0,0.0,75,0.00,,,0.00,weatherlink.com 1.10,2013-07-27 22:35:00,
2013-07-27 18:50:00,68.1,61.0,29.95,ENE,66,0.0,0.0,77,0.00,,,0.00,weatherlink.com 1.10,2013-07-27 22:50:00,
2013-07-27 19:05:00,67.2,59.0,29.95,ENE,67,0.0,1.0,74,0.00,,,0.00,weatherlink.com 1.10,2013-07-27 23:05:00,
2013-07-27 19:20:00,66.7,59.0,29.95,East,96,0.0,1.0,76,0.00,,,0.00,weatherlink.com 1.10,2013-07-27 23:20:00,
2013-07-27 19:35:00,66.5,59.0,29.94,East,96,0.0,0.0,76,0.00,,,0.00,weatherlink.com 1.10,2013-07-27 23:35:00,
2013-07-27 19:50:00,66.2,60.0,29.94,East,96,0.0,1.0,81,0.00,,,0.00,weatherlink.com 1.10,2013-07-27 23:50:00,
2013-07-27 20:05:00,65.5,60.0,29.94,East,96,0.0,0.0,82,0.00,,,0.00,weatherlink.com 1.10,2013-07-28 00:05:00,
2013-07-27 20:20:00,64.2,58.0,29.95,East,96,0.0,0.0,80,0.00,,,0.00,weatherlink.com 1.10,2013-07-28 00:20:00,
2013-07-27 20:35:00,63.1,57.0,29.95,East,96,0.0,0.0,81,0.00,,,0.00,weatherlink.com 1.10,2013-07-28 00:35:00,
2013-07-27 20:50:00,62.6,57.0,29.95,East,96,0.0,0.0,82,0.00,,,0.00,weatherlink.com 1.10,2013-07-28 00:50:00,
2013-07-27 21:06:00,62.1,57.0,29.95,East,96,1.0,1.0,83,0.00,,,0.00,weatherlink.com 1.10,2013-07-28 01:06:00,
2013-07-27 21:20:00,62.0,57.0,29.95,East,96,1.0,1.0,83,0.00,,,0.00,weatherlink.com 1.10,2013-07-28 01:20:00,
2013-07-27 21:35:00,61.9,57.0,29.96,East,96,1.0,1.0,84,0.00,,,0.00,weatherlink.com 1.10,2013-07-28 01:35:00,
2013-07-27 21:50:00,62.1,58.0,29.96,East,96,1.0,1.0,85,0.00,,,0.00,weatherlink.com 1.10,2013-07-28 01:50:00,
2013-07-27 22:05:00,62.1,58.0,29.95,East,96,1.0,1.0,85,0.00,,,0.00,weatherlink.com 1.10,2013-07-28 02:05:00,
2013-07-27 22:20:00,61.9,58.0,29.95,East,96,1.0,1.0,86,0.00,,,0.00,weatherlink.com 1.10,2013-07-28 02:20:00,
2013-07-27 22:35:00,61.8,58.0,29.95,East,96,1.0,1.0,87,0.00,,,0.00,weatherlink.com 1.10,2013-07-28 02:35:00,
2013-07-27 22:50:00,61.7,58.0,29.95,East,96,1.0,1.0,87,0.00,,,0.00,weatherlink.com 1.10,2013-07-28 02:50:00,
2013-07-27 23:05:00,61.7,58.0,29.95,East,83,1.0,1.0,87,0.00,,,0.00,weatherlink.com 1.10,2013-07-28 03:05:00,
2013-07-27 23:20:00,61.7,58.0,29.94,East,83,1.0,1.0,88,0.00,,,0.00,weatherlink.com 1.10,2013-07-28 03:20:00,
2013-07-27 23:35:00,61.8,58.0,29.95,NE,54,1.0,2.0,87,0.00,,,0.00,weatherlink.com 1.10,2013-07-28 03:35:00,
2013-07-27 23:50:00,61.9,58.0,29.94,NE,43,1.0,2.0,87,0.00,,,0.00,weatherlink.com 1.10,2013-07-28 03:50:00,